IGO143 VOMM-VOBL

Flight info

Callsign IGO143
Flight time N/A
Altitude 16000
Route MMV W117 BIA
Aircraft A21N/M-SDE2E3FGHIRWXY/LB1

Departure

Time 2026-04-30 12:45
Airport Chennai International Airport (VOMM)

Arrival

Time N/A
Airport Kempegowda International Airport Bengaluru (VOBL)
Time Latitude Longitude Altitude Speed Heading
2026-04-30 12:06 12.98505 80.16708 58 ft 0 kts 160°
2026-04-30 12:23 12.98511 80.16705 58 ft 3 kts 160°
2026-04-30 12:23 12.98526 80.16700 52 ft 3 kts 160°
2026-04-30 12:23 12.98540 80.16689 53 ft 3 kts 105°
2026-04-30 12:24 12.98544 80.16670 52 ft 3 kts 94°
2026-04-30 12:24 12.98543 80.16660 55 ft 0 kts 67°
2026-04-30 12:28 12.98546 80.16667 50 ft 2 kts 64°
2026-04-30 12:29 12.98557 80.16687 51 ft 4 kts 57°
2026-04-30 12:29 12.98568 80.16712 52 ft 4 kts 66°
2026-04-30 12:29 12.98581 80.16739 55 ft 5 kts 57°
2026-04-30 12:29 12.98610 80.16759 56 ft 5 kts 14°
2026-04-30 12:30 12.98645 80.16756 52 ft 5 kts 348°
2026-04-30 12:30 12.98684 80.16744 55 ft 6 kts 340°
2026-04-30 12:30 12.98768 80.16710 56 ft 40 kts 338°
2026-04-30 12:30 12.98919 80.16759 52 ft 9 kts 94°
2026-04-30 12:31 12.98909 80.16861 54 ft 18 kts 78°
2026-04-30 12:31 12.98910 80.16971 58 ft 16 kts 99°
2026-04-30 12:31 12.98900 80.17096 56 ft 20 kts 85°
2026-04-30 12:31 12.98929 80.17201 52 ft 0 kts 68°
2026-04-30 12:40 12.98934 80.17212 55 ft 6 kts 63°
2026-04-30 12:40 12.98952 80.17244 55 ft 9 kts 58°
2026-04-30 12:40 12.98997 80.17342 52 ft 21 kts 68°
2026-04-30 12:40 12.99063 80.17517 57 ft 31 kts 69°
2026-04-30 12:41 12.99153 80.17682 56 ft 19 kts 19°
2026-04-30 12:41 12.99191 80.17696 60 ft 1 kts 44°
2026-04-30 12:41 12.99206 80.17719 57 ft 5 kts 70°
2026-04-30 12:41 12.99227 80.17779 55 ft 13 kts 69°
2026-04-30 12:42 12.99269 80.17888 54 ft 20 kts 69°
2026-04-30 12:42 12.99322 80.18029 58 ft 22 kts 69°
2026-04-30 12:42 12.99361 80.18177 60 ft 22 kts 90°
2026-04-30 12:42 12.99413 80.18303 51 ft 19 kts 46°
2026-04-30 12:43 12.99452 80.18342 53 ft 0 kts 43°
2026-04-30 12:43 12.99456 80.18346 54 ft 2 kts 43°
2026-04-30 12:43 12.99486 80.18375 55 ft 11 kts 42°
2026-04-30 12:44 12.99563 80.18411 52 ft 3 kts 345°
2026-04-30 12:44 12.99575 80.18388 55 ft 5 kts 278°
2026-04-30 12:44 12.99562 80.18347 55 ft 10 kts 249°
2026-04-30 12:44 12.99508 80.18208 52 ft 52 kts 248°
2026-04-30 12:45 12.99279 80.17608 58 ft 127 kts 248°
2026-04-30 12:45 12.98889 80.16583 254 ft 170 kts 244°
2026-04-30 12:45 12.98486 80.15402 797 ft 180 kts 249°
2026-04-30 12:45 12.98138 80.14141 1452 ft 183 kts 254°
2026-04-30 12:46 12.98233 80.12867 2354 ft 180 kts 292°
2026-04-30 12:46 12.99087 80.11933 3058 ft 191 kts 331°
2026-04-30 12:46 13.00337 80.11309 3490 ft 211 kts 320°
2026-04-30 12:46 13.01218 80.10113 4328 ft 212 kts 294°
2026-04-30 12:47 13.01731 80.08696 5177 ft 213 kts 285°
2026-04-30 12:47 13.02057 80.07204 5848 ft 215 kts 280°
2026-04-30 12:47 13.02312 80.05663 6500 ft 224 kts 279°
2026-04-30 12:47 13.02575 80.04073 7363 ft 228 kts 281°
2026-04-30 12:48 13.02874 80.02465 8270 ft 232 kts 282°
2026-04-30 12:48 13.03216 80.00826 9137 ft 237 kts 283°
2026-04-30 12:48 13.03595 79.99159 9724 ft 241 kts 284°
2026-04-30 12:48 13.03998 79.97464 9962 ft 248 kts 285°
2026-04-30 12:49 13.04413 79.95771 10011 ft 248 kts 284°
2026-04-30 12:49 13.04835 79.94063 10007 ft 247 kts 284°
2026-04-30 12:49 13.05254 79.92358 9999 ft 247 kts 285°
2026-04-30 12:49 13.05674 79.90642 10013 ft 249 kts 285°
2026-04-30 12:50 13.06092 79.88931 9996 ft 247 kts 285°
2026-04-30 12:50 13.06508 79.87215 10012 ft 248 kts 285°
2026-04-30 12:50 13.06926 79.85494 10002 ft 249 kts 285°
2026-04-30 12:50 13.07296 79.83968 10009 ft 248 kts 284°
2026-04-30 12:51 13.07710 79.82259 10011 ft 245 kts 284°
2026-04-30 12:51 13.08135 79.80736 10216 ft 245 kts 296°
2026-04-30 12:51 13.09092 79.79312 10422 ft 244 kts 305°
2026-04-30 12:51 13.09755 79.77700 11025 ft 249 kts 283°
2026-04-30 12:52 13.10032 79.75944 12040 ft 249 kts 277°
2026-04-30 12:52 13.10196 79.74180 13091 ft 249 kts 276°
2026-04-30 12:52 13.10379 79.72413 14028 ft 250 kts 278°
2026-04-30 12:52 13.10630 79.70646 14867 ft 252 kts 281°
2026-04-30 12:53 13.10956 79.68866 15540 ft 254 kts 283°
2026-04-30 12:53 13.11338 79.67089 15935 ft 255 kts 285°